TimeCDT,TemperatureF,Dew PointF,Humidity,Sea Level PressureIn,VisibilityMPH,Wind Direction,Wind SpeedMPH,Gust SpeedMPH,PrecipitationIn,Events,Conditions,WindDirDegrees,DateUTC
12:15 AM,59.9,48.0,65,30.07,10.0,ENE,9.2,-,N/A,,Clear,60,2013-06-19 05:15:00
12:35 AM,59.5,47.8,65,30.07,10.0,ENE,8.1,-,N/A,,Clear,60,2013-06-19 05:35:00
12:55 AM,58.5,47.5,67,30.08,10.0,NE,5.8,-,N/A,,Clear,40,2013-06-19 05:55:00
1:15 AM,57.6,48.2,71,30.08,10.0,NNE,8.1,-,N/A,,Clear,30,2013-06-19 06:15:00
1:35 AM,56.8,48.4,73,30.08,10.0,NE,8.1,-,N/A,,Clear,50,2013-06-19 06:35:00
1:55 AM,56.7,48.2,73,30.08,10.0,NE,8.1,-,N/A,,Clear,40,2013-06-19 06:55:00
2:15 AM,56.3,47.7,73,30.08,10.0,NE,8.1,-,N/A,,Clear,50,2013-06-19 07:15:00
2:35 AM,56.3,48.0,74,30.08,10.0,NE,8.1,-,N/A,,Clear,40,2013-06-19 07:35:00
2:55 AM,56.3,48.0,74,30.07,10.0,ENE,9.2,-,N/A,,Clear,60,2013-06-19 07:55:00
3:15 AM,55.9,48.2,75,30.08,10.0,NE,8.1,-,N/A,,Clear,50,2013-06-19 08:15:00
3:35 AM,56.1,48.2,75,30.07,10.0,NE,9.2,-,N/A,,Clear,50,2013-06-19 08:35:00
3:55 AM,55.4,48.2,77,30.08,10.0,ENE,6.9,-,N/A,,Clear,60,2013-06-19 08:55:00
4:15 AM,54.7,48.2,79,30.08,10.0,NE,6.9,-,N/A,,Clear,50,2013-06-19 09:15:00
4:35 AM,54.9,48.4,79,30.08,10.0,NE,8.1,-,N/A,,Clear,50,2013-06-19 09:35:00
4:55 AM,54.7,48.7,80,30.08,10.0,ENE,8.1,-,N/A,,Clear,60,2013-06-19 09:55:00
5:15 AM,54.7,48.7,80,30.08,10.0,NE,6.9,-,N/A,,Clear,50,2013-06-19 10:15:00
5:35 AM,54.7,49.1,81,30.09,10.0,NE,8.1,-,N/A,,Clear,50,2013-06-19 10:35:00
5:55 AM,55.4,49.1,79,30.10,10.0,ENE,6.9,-,N/A,,Clear,60,2013-06-19 10:55:00
6:15 AM,56.3,49.5,78,30.11,10.0,ENE,6.9,-,N/A,,Clear,60,2013-06-19 11:15:00
6:35 AM,57.4,50.0,76,30.11,10.0,ENE,8.1,-,N/A,,Clear,60,2013-06-19 11:35:00
6:55 AM,58.6,50.7,75,30.12,10.0,ENE,9.2,-,N/A,,Clear,70,2013-06-19 11:55:00
7:15 AM,59.9,51.3,73,30.12,10.0,East,9.2,-,N/A,,Clear,80,2013-06-19 12:15:00
7:35 AM,61.0,52.0,72,30.12,10.0,East,8.1,-,N/A,,Clear,90,2013-06-19 12:35:00
7:55 AM,62.6,52.7,70,30.12,10.0,East,6.9,-,N/A,,Clear,100,2013-06-19 12:55:00
8:15 AM,64.2,53.6,68,30.12,10.0,East,8.1,-,N/A,,Clear,100,2013-06-19 13:15:00
8:35 AM,65.5,54.1,67,30.12,10.0,ESE,6.9,-,N/A,,Clear,110,2013-06-19 13:35:00
8:55 AM,66.2,54.7,66,30.13,10.0,ESE,6.9,-,N/A,,Clear,110,2013-06-19 13:55:00
9:15 AM,68.0,56.1,66,30.13,10.0,East,5.8,-,N/A,,Clear,90,2013-06-19 14:15:00
9:35 AM,69.1,56.5,64,30.13,10.0,ESE,6.9,-,N/A,,Clear,110,2013-06-19 14:35:00
9:55 AM,70.7,56.8,61,30.13,10.0,ESE,4.6,-,N/A,,Clear,120,2013-06-19 14:55:00
10:15 AM,71.6,57.0,60,30.12,10.0,ESE,5.8,-,N/A,,Clear,120,2013-06-19 15:15:00
10:35 AM,72.7,57.2,58,30.11,10.0,SSE,4.6,-,N/A,,Clear,150,2013-06-19 15:35:00
10:55 AM,72.9,57.6,59,30.11,10.0,East,3.5,-,N/A,,Clear,90,2013-06-19 15:55:00
11:15 AM,75.0,58.6,57,30.12,10.0,Calm,Calm,-,N/A,,Clear,0,2013-06-19 16:15:00
11:35 AM,73.6,58.8,60,30.11,10.0,ENE,5.8,-,N/A,,Mostly Cloudy,70,2013-06-19 16:35:00
11:55 AM,75.2,58.6,56,30.11,10.0,Calm,Calm,-,N/A,,Mostly Cloudy,0,2013-06-19 16:55:00
12:15 PM,75.4,57.9,54,30.10,10.0,ENE,4.6,-,N/A,,Scattered Clouds,60,2013-06-19 17:15:00
12:35 PM,75.4,57.2,53,30.10,10.0,ENE,3.5,-,N/A,,Scattered Clouds,60,2013-06-19 17:35:00
12:55 PM,77.5,59.4,53,30.10,10.0,East,6.9,-,N/A,,Scattered Clouds,80,2013-06-19 17:55:00
1:15 PM,77.0,58.6,53,30.09,10.0,East,4.6,-,N/A,,Clear,90,2013-06-19 18:15:00
1:35 PM,77.9,57.6,49,30.09,10.0,East,3.5,-,N/A,,Clear,80,2013-06-19 18:35:00
1:55 PM,78.6,56.7,47,30.08,10.0,ESE,4.6,-,N/A,,Clear,120,2013-06-19 18:55:00
2:15 PM,80.1,58.5,48,30.08,10.0,ENE,4.6,-,N/A,,Clear,60,2013-06-19 19:15:00
2:35 PM,80.2,57.9,46,30.07,10.0,Calm,Calm,-,N/A,,Clear,0,2013-06-19 19:35:00
2:55 PM,80.2,57.2,45,30.06,10.0,ENE,6.9,-,N/A,,Clear,60,2013-06-19 19:55:00
3:15 PM,80.2,57.0,45,30.06,10.0,ENE,5.8,-,N/A,,Clear,70,2013-06-19 20:15:00
3:35 PM,80.4,56.8,44,30.06,10.0,NE,3.5,-,N/A,,Scattered Clouds,40,2013-06-19 20:35:00
3:55 PM,80.2,55.0,42,30.06,10.0,ENE,3.5,-,N/A,,Scattered Clouds,70,2013-06-19 20:55:00
4:15 PM,80.4,55.8,43,30.05,10.0,ENE,3.5,-,N/A,,Scattered Clouds,60,2013-06-19 21:15:00
4:35 PM,80.2,55.9,43,30.05,10.0,Calm,Calm,-,N/A,,Clear,0,2013-06-19 21:35:00
4:55 PM,81.1,56.1,42,30.05,10.0,East,3.5,-,N/A,,Clear,100,2013-06-19 21:55:00
5:15 PM,81.0,54.7,40,30.05,10.0,Calm,Calm,-,N/A,,Clear,0,2013-06-19 22:15:00
5:35 PM,81.1,57.6,44,30.05,10.0,East,5.8,-,N/A,,Mostly Cloudy,80,2013-06-19 22:35:00
5:55 PM,80.6,57.4,45,30.05,10.0,East,9.2,-,N/A,,Mostly Cloudy,90,2013-06-19 22:55:00
6:15 PM,80.4,57.0,45,30.05,10.0,ESE,4.6,-,N/A,,Scattered Clouds,110,2013-06-19 23:15:00
6:35 PM,80.2,55.8,43,30.05,10.0,East,5.8,-,N/A,,Scattered Clouds,100,2013-06-19 23:35:00
6:55 PM,77.9,57.6,49,30.06,10.0,East,9.2,-,N/A,,Scattered Clouds,90,2013-06-19 23:55:00
7:15 PM,78.4,57.4,48,30.06,10.0,East,6.9,-,N/A,,Scattered Clouds,90,2013-06-20 00:15:00
7:35 PM,78.3,57.4,49,30.06,10.0,East,6.9,-,N/A,,Scattered Clouds,100,2013-06-20 00:35:00
7:55 PM,76.6,57.7,52,30.06,10.0,East,6.9,-,N/A,,Clear,90,2013-06-20 00:55:00
8:15 PM,75.2,58.5,56,30.06,10.0,East,6.9,-,N/A,,Clear,90,2013-06-20 01:15:00
8:35 PM,74.3,57.7,56,30.06,10.0,East,6.9,-,N/A,,Clear,90,2013-06-20 01:35:00
8:55 PM,73.0,57.2,57,30.06,10.0,East,8.1,-,N/A,,Clear,90,2013-06-20 01:55:00
9:15 PM,73.4,57.2,57,30.07,10.0,ESE,10.4,-,N/A,,Clear,110,2013-06-20 02:15:00
9:35 PM,72.7,55.8,55,30.08,10.0,East,9.2,17.3,N/A,,Clear,100,2013-06-20 02:35:00
9:55 PM,71.6,55.0,56,30.08,10.0,ESE,10.4,-,N/A,,Clear,110,2013-06-20 02:55:00
10:15 PM,71.6,54.7,55,30.08,10.0,ESE,10.4,-,N/A,,Clear,110,2013-06-20 03:15:00
10:35 PM,70.7,54.9,57,30.09,10.0,ESE,9.2,-,N/A,,Clear,110,2013-06-20 03:35:00
10:55 PM,70.2,54.7,58,30.09,10.0,ESE,9.2,-,N/A,,Clear,110,2013-06-20 03:55:00
11:15 PM,70.0,54.7,58,30.10,10.0,ESE,8.1,-,N/A,,Clear,120,2013-06-20 04:15:00
11:35 PM,70.0,53.8,56,30.10,10.0,ESE,6.9,-,N/A,,Clear,110,2013-06-20 04:35:00
11:55 PM,69.3,54.0,58,30.11,10.0,ESE,8.1,-,N/A,,Clear,110,2013-06-20 04:55:00